When you browse on this site, cookies collect data to enhance your experience and personalize the content and advertising you see.
Visit our Privacy Policy to learn more. By continuing to use the site, you agree to this use of cookies and data.
  • In Spain
  • List of Countries
  • For 7 days
  • Water Temperature
  • Satellite Maps
  • Weather Map
  • Weather Widgets
  • user-avatar
    Login

    Hourly Weather Batina

    Today, 18 June, Tuesday

    Time Temperature Precipitation Wind Pressure Humidity
    00:00 +22°C° 0 mm 1 mps 672 mmHg 56%
    01:00 +22°C° 0 mm 1 mps 671 mmHg 55%
    02:00 +22°C° 0 mm 1 mps 671 mmHg 55%
    03:00 +20°C° 0 mm 0 mps 671 mmHg 54%
    04:00 +21°C° 0 mm 0 mps 671 mmHg 50%
    05:00 +24°C° 0 mm 1 mps 672 mmHg 47%
    06:00 +24°C° 0 mm 1 mps 672 mmHg 43%
    07:00 +26°C° 0 mm 1 mps 673 mmHg 39%
    08:00 +28°C° 0 mm 1 mps 673 mmHg 35%
    09:00 +29°C° 0 mm 2 mps 674 mmHg 30%
    10:00 +30°C° 0 mm 2 mps 674 mmHg 28%
    11:00 +31°C° 0 mm 3 mps 674 mmHg 26%
    12:00 +33°C° 0 mm 5 mps 674 mmHg 24%
    13:00 +34°C° 0 mm 5 mps 674 mmHg 23%
    14:00 +34°C° 0 mm 6 mps 673 mmHg 22%
    15:00 +34°C° 0 mm 6 mps 673 mmHg 21%
    16:00 +33°C° 0 mm 5 mps 673 mmHg 21%
    17:00 +33°C° 0 mm 4 mps 673 mmHg 21%
    18:00 +32°C° 0 mm 4 mps 673 mmHg 22%
    19:00 +29°C° 0 mm 3 mps 673 mmHg 27%
    20:00 +28°C° 0 mm 2 mps 672 mmHg 32%
    21:00 +26°C° 0 mm 1 mps 672 mmHg 37%
    22:00 +25°C° 0 mm 1 mps 672 mmHg 38%
    23:00 +25°C° 0 mm 1 mps 672 mmHg 38%

    Tomorrow, 19 June, Wednesday

    Time Temperature Precipitation Wind Pressure Humidity
    00:00 +24°C° 0 mm 1 mps 672 mmHg 39%
    01:00 +24°C° 0 mm 2 mps 672 mmHg 39%
    02:00 +24°C° 0 mm 2 mps 671 mmHg 39%
    03:00 +23°C° 0 mm 2 mps 671 mmHg 38%
    04:00 +24°C° 0 mm 2 mps 672 mmHg 36%
    05:00 +25°C° 0 mm 2 mps 672 mmHg 34%
    06:00 +27°C° 0 mm 3 mps 673 mmHg 31%
    07:00 +28°C° 0 mm 4 mps 673 mmHg 28%
    08:00 +30°C° 0 mm 5 mps 674 mmHg 25%
    09:00 +33°C° 0 mm 6 mps 674 mmHg 22%
    10:00 +34°C° 0 mm 7 mps 674 mmHg 21%
    11:00 +35°C° 0 mm 7 mps 674 mmHg 20%
    12:00 +35°C° 0 mm 8 mps 675 mmHg 18%
    13:00 +35°C° 0 mm 7 mps 674 mmHg 18%
    14:00 +35°C° 0 mm 6 mps 674 mmHg 18%
    15:00 +35°C° 0 mm 5 mps 673 mmHg 18%
    16:00 +35°C° 0 mm 5 mps 673 mmHg 19%
    17:00 +34°C° 0 mm 4 mps 673 mmHg 20%
    18:00 +34°C° 0 mm 4 mps 673 mmHg 21%
    19:00 +31°C° 0 mm 3 mps 673 mmHg 24%
    20:00 +30°C° 0 mm 3 mps 673 mmHg 27%
    21:00 +28°C° 0 mm 2 mps 673 mmHg 29%
    22:00 +28°C° 0 mm 2 mps 672 mmHg 31%
    23:00 +27°C° 0 mm 1 mps 672 mmHg 33%

    Day after tomorrow, 20 June, Thursday

    Time Temperature Precipitation Wind Pressure Humidity
    00:00 +25°C° 0 mm 0 mps 672 mmHg 35%
    01:00 +26°C° 0 mm 1 mps 671 mmHg 35%
    02:00 +26°C° 0 mm 1 mps 671 mmHg 35%
    03:00 +25°C° 0 mm 1 mps 671 mmHg 35%
    04:00 +27°C° 0 mm 1 mps 671 mmHg 33%
    05:00 +28°C° 0 mm 2 mps 672 mmHg 31%
    06:00 +29°C° 0 mm 2 mps 672 mmHg 28%
    07:00 +30°C° 0 mm 4 mps 673 mmHg 25%
    08:00 +33°C° 0 mm 6 mps 673 mmHg 21%
    09:00 +35°C° 0 mm 7 mps 674 mmHg 17%
    10:00 +35°C° 0 mm 8 mps 674 mmHg 16%
    11:00 +37°C° 0 mm 8 mps 674 mmHg 15%
    12:00 +38°C° 0 mm 9 mps 674 mmHg 14%
    13:00 +38°C° 0 mm 8 mps 674 mmHg 14%
    14:00 +38°C° 0 mm 8 mps 673 mmHg 14%
    15:00 +38°C° 0 mm 8 mps 673 mmHg 14%
    16:00 +36°C° 0 mm 7 mps 673 mmHg 15%
    17:00 +35°C° 0 mm 6 mps 673 mmHg 16%
    18:00 +34°C° 0 mm 5 mps 672 mmHg 16%
    19:00 +33°C° 0 mm 5 mps 672 mmHg 18%
    20:00 +32°C° 0 mm 5 mps 672 mmHg 19%
    21:00 +30°C° 0 mm 5 mps 672 mmHg 20%
    22:00 +30°C° 0 mm 6 mps 672 mmHg 20%
    23:00 +29°C° 0 mm 6 mps 672 mmHg 21%

    21 June, Friday

    Time Temperature Precipitation Wind Pressure Humidity
    00:00 +29°C° 0 mm 7 mps 672 mmHg 21%
    01:00 +29°C° 0 mm 7 mps 672 mmHg 23%
    02:00 +28°C° 0 mm 7 mps 671 mmHg 25%
    03:00 +28°C° 0 mm 7 mps 671 mmHg 27%
    04:00 +29°C° 0 mm 8 mps 672 mmHg 27%
    05:00 +29°C° 0 mm 9 mps 672 mmHg 27%
    06:00 +31°C° 0 mm 9 mps 672 mmHg 26%
    07:00 +32°C° 0 mm 11 mps 673 mmHg 23%
    08:00 +34°C° 0 mm 12 mps 673 mmHg 20%
    09:00 +37°C° 0 mm 13 mps 674 mmHg 17%
    10:00 +37°C° 0 mm 12 mps 674 mmHg 16%
    11:00 +38°C° 0 mm 12 mps 674 mmHg 15%
    12:00 +38°C° 0 mm 11 mps 674 mmHg 14%
    13:00 +39°C° 0 mm 10 mps 673 mmHg 14%
    14:00 +39°C° 0 mm 10 mps 673 mmHg 13%
    15:00 +39°C° 0 mm 9 mps 673 mmHg 12%
    16:00 +39°C° 0 mm 8 mps 672 mmHg 13%
    17:00 +38°C° 0 mm 7 mps 672 mmHg 13%
    18:00 +36°C° 0 mm 6 mps 672 mmHg 13%
    19:00 +35°C° 0 mm 6 mps 672 mmHg 14%
    20:00 +34°C° 0 mm 6 mps 672 mmHg 15%
    21:00 +32°C° 0 mm 6 mps 672 mmHg 16%
    22:00 +32°C° 0 mm 7 mps 672 mmHg 16%
    23:00 +32°C° 0 mm 7 mps 672 mmHg 15%

    22 June, Saturday

    Time Temperature Precipitation Wind Pressure Humidity
    00:00 +32°C° 0 mm 8 mps 672 mmHg 15%
    01:00 +31°C° 0 mm 8 mps 672 mmHg 17%
    02:00 +30°C° 0 mm 7 mps 671 mmHg 19%
    03:00 +29°C° 0 mm 7 mps 671 mmHg 21%
    04:00 +30°C° 0 mm 7 mps 672 mmHg 21%
    05:00 +30°C° 0 mm 7 mps 672 mmHg 21%
    06:00 +32°C° 0 mm 6 mps 673 mmHg 21%
    07:00 +33°C° 0 mm 8 mps 673 mmHg 19%
    08:00 +35°C° 0 mm 9 mps 674 mmHg 17%
    09:00 +37°C° 0 mm 11 mps 674 mmHg 14%
    10:00 +38°C° 0 mm 10 mps 674 mmHg 14%
    11:00 +39°C° 0 mm 10 mps 674 mmHg 13%
    12:00 +39°C° 0 mm 10 mps 674 mmHg 13%
    13:00 +39°C° 0 mm 9 mps 674 mmHg 12%
    14:00 +40°C° 0 mm 9 mps 673 mmHg 12%
    15:00 +40°C° 0 mm 8 mps 673 mmHg 11%
    16:00 +39°C° 0 mm 8 mps 673 mmHg 12%
    17:00 +38°C° 0 mm 7 mps 673 mmHg 12%
    18:00 +38°C° 0 mm 7 mps 672 mmHg 12%
    19:00 +35°C° 0 mm 6 mps 672 mmHg 14%
    20:00 +34°C° 0 mm 6 mps 672 mmHg 15%
    21:00 +32°C° 0 mm 6 mps 672 mmHg 16%
    22:00 +32°C° 0 mm 6 mps 672 mmHg 16%
    23:00 +32°C° 0 mm 6 mps 672 mmHg 16%

    23 June, Sunday

    Time Temperature Precipitation Wind Pressure Humidity
    00:00 +30°C° 0 mm 6 mps 672 mmHg 17%
    01:00 +30°C° 0 mm 7 mps 672 mmHg 18%
    02:00 +30°C° 0 mm 7 mps 672 mmHg 19%
    03:00 +29°C° 0 mm 8 mps 672 mmHg 20%
    04:00 +30°C° 0 mm 7 mps 672 mmHg 20%
    05:00 +30°C° 0 mm 7 mps 673 mmHg 19%
    06:00 +32°C° 0 mm 6 mps 673 mmHg 19%
    07:00 +33°C° 0 mm 8 mps 674 mmHg 16%
    08:00 +35°C° 0 mm 9 mps 674 mmHg 14%
    09:00 +37°C° 0 mm 10 mps 675 mmHg 11%
    10:00 +38°C° 0 mm 10 mps 675 mmHg 11%
    11:00 +39°C° 0 mm 10 mps 675 mmHg 11%
    12:00 +39°C° 0 mm 9 mps 675 mmHg 11%
    13:00 +39°C° 0 mm 9 mps 675 mmHg 11%
    14:00 +39°C° 0 mm 8 mps 675 mmHg 11%
    15:00 +39°C° 0 mm 8 mps 674 mmHg 11%
    16:00 +38°C° 0 mm 7 mps 674 mmHg 12%
    17:00 +38°C° 0 mm 7 mps 674 mmHg 12%
    18:00 +36°C° 0 mm 6 mps 674 mmHg 13%
    19:00 +34°C° 0 mm 5 mps 674 mmHg 15%
    20:00 +32°C° 0 mm 4 mps 674 mmHg 16%
    21:00 +30°C° 0 mm 3 mps 674 mmHg 18%
    22:00 +29°C° 0 mm 3 mps 674 mmHg 18%
    23:00 +29°C° 0 mm 3 mps 674 mmHg 18%
    Show more